Clemson, SC

5:11 PM EDT on August 19, 2017 (GMT -0400)
Oconee County Regional

Weather History for KCEU - November, 2012

Change the Weather History Date:

Thursday, November 22, 2012

  Actual Average Record
Temperature  
Mean Temperature 55 °F -  
Max Temperature 66 °F 59 °F 77 °F (2011)
Min Temperature 44 °F 36 °F 12 °F (1937)
Degree Days  
Heating Degree Days 10    
Growing Degree Days 5 (Base 50)    
Moisture  
Dew Point 38 °F    
Average Humidity 62    
Maximum Humidity 93    
Minimum Humidity 28    
Precipitation  
Precipitation 0.00 in - - ()
Sea Level Pressure  
Sea Level Pressure 30.21 in    
Wind  
Wind Speed 2 mph (NNE)    
Max Wind Speed 6 mph    
Max Gust Speed -    
Visibility 8 miles    
Events Fog    
Averages and records for this station are not official NWS values.
T = Trace of Precipitation, MM = Missing Value Source: NWS Daily Summary

Daily Weather History Graph

Daily Weather History Graph

Search for Another Location

Airport or City:

Trip Planner

Search our weather history database for the weather conditions in past years. The results will help you decide how hot, cold, wet, or windy it might be!

Date:

Astronomy

Nov. 22, 2012 Rise Set
Actual Time 7:12 AM EST 5:22 PM EST
Civil Twilight 6:45 AM EST 5:50 PM EST
Nautical Twilight 6:14 AM EST 6:20 PM EST
Astronomical Twilight 5:44 AM EST 6:51 PM EST
Moon 1:56 PM EST (11/22) 1:43 AM EST (11/22)
Length of Visible Light 11h 04m
Length of Day
10h 10m
Waxing Gibbous, 71% of the Moon is Illuminated
Nov 22
Waxing Gibbous
Nov 28
Full
Dec 6
Last Quarter
Dec 13
New
Dec 20
First Quarter

Hourly Weather History & Observations

Time (EST) Temp. Windchill Dew Point Humidity Pressure Visibility Wind Dir Wind Speed Gust Speed Precip Events Conditions
12:54 AM 51.1 °F - 46.9 °F 86% 30.17 in 10.0 mi Calm Calm - N/A   Clear
1:54 AM 46.9 °F - 43.0 °F 86% 30.17 in 7.0 mi NW 4.6 mph - N/A   Clear
2:50 AM 44.6 °F - 42.8 °F 93% 30.20 in 1.5 mi Calm Calm - N/A   Clear
2:52 AM 44.6 °F - 41.0 °F 87% 30.20 in 0.8 mi Calm Calm - N/A   Mist
2:54 AM 45.0 °F - 41.0 °F 86% 30.20 in 0.5 mi Calm Calm - N/A Fog Fog
3:04 AM 44.6 °F 42.2 °F 41.0 °F 87% 30.21 in 1.2 mi East 4.6 mph - N/A   Partly Cloudy
3:14 AM 44.6 °F 43.1 °F 41.0 °F 87% 30.21 in 3.0 mi ENE 3.5 mph - N/A   Partly Cloudy
3:54 AM 44.1 °F - 39.9 °F 85% 30.21 in 9.0 mi Calm Calm - N/A   Clear
4:54 AM 45.0 °F 43.5 °F 39.0 °F 80% 30.22 in 10.0 mi North 3.5 mph - N/A   Clear
5:54 AM 46.9 °F - 36.0 °F 66% 30.23 in 10.0 mi Calm Calm - N/A   Clear
6:54 AM 44.1 °F 42.5 °F 36.0 °F 73% 30.25 in 10.0 mi NNW 3.5 mph - N/A   Clear
7:54 AM 46.0 °F 44.8 °F 41.0 °F 83% 30.27 in 10.0 mi North 3.5 mph - N/A   Clear
8:54 AM 50.0 °F - 43.0 °F 77% 30.28 in 10.0 mi North 5.8 mph - N/A   Clear
9:54 AM 54.0 °F - 37.9 °F 55% 30.28 in 10.0 mi NNW 3.5 mph - N/A   Clear
10:54 AM 57.9 °F - 30.0 °F 35% 30.28 in 10.0 mi Calm Calm - N/A   Clear
11:54 AM 61.0 °F - 30.0 °F 31% 30.25 in 10.0 mi Calm Calm - N/A   Clear
12:54 PM 63.0 °F - 32.0 °F 31% 30.22 in 10.0 mi East 4.6 mph - N/A   Clear
1:54 PM 64.9 °F - 34.0 °F 32% 30.20 in 10.0 mi ESE 5.8 mph - N/A   Clear
2:54 PM 66.9 °F - 33.1 °F 28% 30.17 in 10.0 mi Calm Calm - N/A   Clear
3:54 PM 66.0 °F - 34.0 °F 30% 30.17 in 10.0 mi ESE 3.5 mph - N/A   Clear
4:54 PM 64.0 °F - 33.1 °F 31% 30.17 in 10.0 mi Calm Calm - N/A   Clear
5:54 PM 61.0 °F - 35.1 °F 38% 30.19 in 10.0 mi South 3.5 mph - N/A   Clear
6:54 PM 60.1 °F - 34.0 °F 38% 30.19 in 10.0 mi Calm Calm - N/A   Clear
7:54 PM 55.9 °F - 34.0 °F 44% 30.20 in 10.0 mi Calm Calm - N/A   Clear
8:54 PM 53.1 °F - 39.9 °F 61% 30.20 in 10.0 mi Calm Calm - N/A   Clear
9:54 PM 52.0 °F - 35.1 °F 53% 30.20 in 10.0 mi NNW 3.5 mph - N/A   Clear
10:54 PM 52.0 °F - 43.0 °F 71% 30.19 in 10.0 mi Calm Calm - N/A   Clear
11:54 PM 50.0 °F - 44.1 °F 80% 30.18 in 10.0 mi Calm Calm - N/A   Clear